Location: Home
(42.5358°N, 72.7383°W)
Time: 06:26:24
(UTC-05:00)

Envisat - Pass Details

Date: 30 October 2021
Orbit: 764 x 766 km, 98.2° (Epoch: 07 December)

Event Time Altitude Azimuth Distance (km) Brightness Sun altitude
Rises 06:35:12 0° 6° (N) 3,242 6.2 -9.3°
Reaches altitude 10° 06:37:36 10° 0° (N) 2,311 5.4 -8.8°
Maximum altitude 06:42:24 43° 290° (WNW) 1,061 3.3 -8.0°
Drops below altitude 10° 06:47:10 10° 220° (SW) 2,295 5.2 -7.1°
Sets 06:49:33 0° 213° (SSW) 3,216 6.0 -6.7°
